Regional Weather Roundup
Issued by NWS Cleveland, OH

Home | Current Version | Previous Version | Text Only | Print | Product List | Glossary On
Versions: 1 2 3 4 5 6 7 8 9 10 11 12 13 14 15 16 17 18 19 20 21 22 23 24 25 26 27 28 29 30 31 32 33 34 35 36 37 38 39 40 41 42 43 44 45 46 47 48 49 50
000
ASUS41 KCLE 302202
RWRCLE
OHIO REGIONAL WEATHER ROUNDUP
NATIONAL WEATHER SERVICE CLEVELAND, OH
600 PM EDT THU MAR 30 2017

NOTE: "FAIR" INDICATES FEW OR NO CLOUDS BELOW 12,000 FEET WITH NO
SIGNIFICANT WEATHER AND/OR OBSTRUCTIONS TO VISIBILITY.

OHZ001>008-015>018-024>027-034-035-043-044-302300-
   NORTHWEST OHIO

CITY           SKY/WX    TMP DP  RH WIND       PRES   REMARKS
DEFIANCE       CLOUDY    44  42  93 NE14      29.66F
FINDLAY        LGT RAIN  50  44  80 E17       29.65F
TOLEDO EXPRESS CLOUDY    41  41 100 E14       29.70F
TOLEDO EXEC    CLOUDY    42  41  96 E15G21    29.71F
LIMA           CLOUDY    52  49  89 E16       29.63F
$$

OHZ009>014-019>023-028>033-038-089-302300-
   NORTHEAST OHIO

CITY           SKY/WX    TMP DP  RH WIND       PRES   REMARKS
CLE-HOPKINS    CLOUDY    52  39  61 E10       29.79F
CLE-LAKEFRONT  CLOUDY    48  40  73 NE7       29.78R
CUY CO. ARPT   CLOUDY    48  41  76 E15       29.79R
LORAIN-ELYRIA  CLOUDY    50  41  71 E8        29.76F
ASHTABULA      CLOUDY    43  38  82 SE10      29.83F
AKRON-CANTON   CLOUDY    55  42  61 E12G20    29.76S
WOOSTER        CLOUDY    55  45  68 E10       29.74F
MANSFIELD      CLOUDY    59  49  69 E14       29.70F
YOUNGSTOWN     CLOUDY    48  38  68 E13G23    29.80S
$$

OHZ042-051>053-060>062-070>072-077>081-302300-
  SOUTHWEST OHIO

CITY           SKY/WX    TMP DP  RH WIND       PRES   REMARKS
CINC-COVINGTON CLOUDY    76  50  40 SW17      29.60F
CINC-LUNKEN    PTSUNNY   75  54  47 S10       29.59F
HAMILTON       CLOUDY    77  51  40 S10G23    29.59F
DAYTON         CLOUDY    74  48  39 S20G29    29.60F
WRIGHT-PAT AFB NOT AVBL
DAYTON GENERAL CLOUDY    74  51  44 S15       29.59F
WILMINGTON     CLOUDY    73  55  53 S10       29.62F
$$

OHZ036-037-039>041-045>050-054>059-063>069-073>076-082>088-302300-
  CENTRAL AND SOUTHEAST OHIO

CITY           SKY/WX    TMP DP  RH WIND       PRES   REMARKS
COLUMBUS       CLOUDY    76  55  48 S5        29.64F
OSU AIRPORT    CLOUDY    75  55  49 S10G21    29.63F
BOLTON FIELD   PTSUNNY   75  55  50 SW16      29.64F
RICKENBACK AFB CLOUDY    75  57  52 SW5       29.63S
NEWARK         CLOUDY    71  53  52 NE8       29.64F
MARION         CLOUDY    65  52  62 E13       29.65F
LANCASTER      CLOUDY    77  55  46 S8        29.63F
ZANESVILLE     CLOUDY    69  53  56 E10       29.68F
NEW PHILLY     NOT AVBL
$$



USA.gov is the U.S. government's official web portal to all federal, state and local government web resources and services.